AEROCUBE 8C

Last updated on Sat Aug 15 2026 00:03:44 GMT+0000 (Coordinated Universal Time)

1 41853U 16067F 26226.11759557 .00004048 00000+0 16372-3 0 9996 2 41853 98.0462 97.8570 0004251 202.1745 157.9307 15.25372220534891
UTC large
Height (km)
Speed (km/s)
/
Latitude / Longitude
Inclination (degrees)
Orbital Period (minutes)
Azimuth
Elevation
Range (km)
Doppler Factor

Next 0 passes for location: London (51.5072 / 0.1276)

No passes found over London.
AEROCUBE 8C